This demonstration page uses our WeatherBlox Daily Observations layout. Learn more.

Hourly Observations for December 7, 2015

Temp ( °F °C ) Dew Point ( °F °C ) Humidity (%) Winds ( mph kmh ) Pressure ( in mb ) Visibility ( mi km ) Precip ( " mm )
12:15 am 00:15 Clear 38 3.1 25 -3.7 61 61 SSW 10 17 30.21 1023 10 16.0934 0 0
12:35 am 00:35 Clear 37 3 25 -3.8 61 61 SSW 8 13 30.21 1023 10 16.0934 0 0
12:55 am 00:55 Clear 36 2.2 25 -3.8 65 65 SSW 8 13 30.21 1023 10 16.0934 0 0
1:15 am 01:15 Clear 35 1.4 25 -4 68 68 SW 5 7 30.21 1023 10 16.0934 0 0
1:35 am 01:35 Clear 35 1.5 25 -4 67 67 SSW 8 13 30.21 1023 10 16.0934 0 0
1:55 am 01:55 Clear 35 1.5 25 -4 67 67 SSW 8 13 30.21 1023 10 16.0934 0 0
2:15 am 02:15 Clear 35 1.4 25 -4 68 68 SSW 8 13 30.21 1023 10 16.0934 0 0
2:35 am 02:35 Clear 34 0.9 25 -4.1 70 70 SSW 7 11 30.21 1023 10 16.0934 0 0
2:55 am 02:55 Clear 33 0.3 25 -4 73 73 SW 6 9 30.24 1024 10 16.0934 0 0
3:15 am 03:15 Clear 32 0.2 25 -4.1 73 73 SW 3 6 30.24 1024 10 16.0934 0 0
3:35 am 03:35 Clear 32 0 25 -4 75 75 SSE 6 9 30.21 1023 10 16.0934 0 0
3:55 am 03:55 Clear 32 -0.1 24 -4.2 74 74 SSW 5 7 30.21 1023 10 16.0934 0 0
4:15 am 04:15 Clear 31 -0.3 24 -4.2 75 75 SSW 9 15 30.21 1023 10 16.0934 0 0
4:35 am 04:35 Clear 32 0 25 -4 75 75 SW 8 13 30.21 1023 10 16.0934 0 0
4:55 am 04:55 Clear 32 0.1 25 -4 74 74 SW 6 9 30.21 1023 10 16.0934 0 0
5:15 am 05:15 Clear 32 0 25 -4 75 75 SW 7 11 30.21 1023 10 16.0934 0 0
5:35 am 05:35 Clear 31 -0.3 25 -4.1 76 76 SW 8 13 30.21 1023 10 16.0934 0 0
5:55 am 05:55 Clear 31 -0.5 25 -4 77 77 SW 9 15 30.18 1022 10 16.0934 0 0
6:15 am 06:15 Clear 31 -0.4 25 -3.7 79 79 WSW 6 9 30.18 1022 10 16.0934 0 0
6:35 am 06:35 Clear 31 -0.3 25 -3.7 78 78 WSW 7 11 30.18 1022 10 16.0934 0 0
6:55 am 06:55 Clear 32 0 26 -3.6 77 77 WSW 7 11 30.18 1022 10 16.0934 0 0
7:15 am 07:15 Clear 32 0 25 -3.7 76 76 WSW 9 15 30.18 1022 10 16.0934 0 0
7:35 am 07:35 Clear 32 -0.2 24 -4.3 74 74 WSW 9 15 30.18 1022 10 16.0934 0 0
7:55 am 07:55 Sunny 33 0.7 23 -4.9 66 66 W 10 17 30.15 1021 10 16.0934 0 0
8:15 am 08:15 Sunny 33 0.5 23 -5 67 67 W 12 19 30.15 1021 10 16.0934 0 0
8:35 am 08:35 Sunny 33 0.5 23 -4.9 67 67 W 8 13 30.15 1021 10 16.0934 0 0
8:55 am 08:55 Sunny 34 1.1 24 -4.5 67 67 W 9 15 30.15 1021 10 16.0934 0 0
9:15 am 09:15 Sunny 38 3.1 25 -4 60 60 W 10 17 30.15 1021 10 16.0934 0 0
9:35 am 09:35 Sunny 40 4.7 25 -3.9 54 54 WNW 12 19 30.15 1021 10 16.0934 0 0
9:55 am 09:55 Sunny 43 5.9 26 -3.3 52 52 WNW 9 15 30.15 1021 10 16.0934 0 0
10:15 am 10:15 Sunny 46 7.5 27 -2.7 49 49 WNW 12 19 30.12 1020 10 16.0934 0 0
10:35 am 10:35 Sunny 48 9 27 -3 43 43 NW 10 17 30.12 1020 10 16.0934 0 0
10:55 am 10:55 Sunny 50 9.9 27 -2.8 41 41 NW 12 19 30.12 1020 10 16.0934 0 0
11:15 am 11:15 Sunny 51 10.5 27 -2.6 40 40 NW 14 22 30.09 1019 10 16.0934 0 0
11:35 am 11:35 Sunny 51 10.8 28 -2.4 40 40 WNW 12 19 30.09 1019 10 16.0934 0 0
11:55 am 11:55 Sunny 53 11.5 28 -2.4 38 38 WNW 7 11 30.06 1018 10 16.0934 0 0
12:15 pm 12:15 Sunny 53 11.7 28 -2.2 38 38 WNW 7 11 30.06 1018 10 16.0934 0 0
12:35 pm 12:35 Sunny 54 12.2 28 -2.3 37 37 WNW 9 15 30.06 1018 10 16.0934 0 0
12:55 pm 12:55 Sunny 54 12 28 -2.2 37 37 WNW 7 11 30.06 1018 10 16.0934 0 0
1:15 pm 13:15 Sunny 54 12 28 -2.2 37 37 W 7 11 30.03 1017 10 16.0934 0 0
1:35 pm 13:35 Sunny 56 13.3 28 -2.2 34 34 W 9 15 30 1016 10 16.0934 0 0
1:55 pm 13:55 Sunny 55 12.7 28 -2.5 35 35 W 8 13 30 1016 10 16.0934 0 0
2:15 pm 14:15 Sunny 55 13 28 -2.3 35 35 W 7 11 29.97 1015 10 16.0934 0 0
2:35 pm 14:35 Sunny 55 12.8 30 -1.1 38 38 W 5 7 29.97 1015 10 16.0934 0 0
2:55 pm 14:55 Sunny 56 13.2 29 -1.9 35 35 W 3 6 29.97 1015 10 16.0934 0 0
3:15 pm 15:15 Sunny 55 12.8 28 -2.2 35 35 WNW 3 6 29.97 1015 10 16.0934 0 0
3:35 pm 15:35 Sunny 55 12.8 29 -1.9 36 36 WNW 5 7 29.97 1015 10 16.0934 0 0
3:55 pm 15:55 Sunny 54 12.1 29 -1.7 39 39 W 3 6 29.97 1015 10 16.0934 0 0
4:15 pm 16:15 Sunny 53 11.6 29 -1.4 41 41 Calm 30 1016 10 16.0934 0 0
4:35 pm 16:35 Sunny 52 10.9 30 -1.2 43 43 SSW 5 7 29.97 1015 10 16.0934 0 0
4:55 pm 16:55 Sunny 49 9.3 31 -0.8 50 50 SW 6 9 29.97 1015 10 16.0934 0 0
5:15 pm 17:15 Clear 47 8.1 30 -1.1 53 53 SW 7 11 30 1016 10 16.0934 0 0
5:35 pm 17:35 Clear 46 7.6 29 -1.5 53 53 SW 8 13 30 1016 10 16.0934 0 0
5:55 pm 17:55 Clear 44 6.6 29 -1.7 56 56 SW 7 11 30 1016 10 16.0934 0 0
6:15 pm 18:15 Clear 44 6.4 28 -2 55 55 SW 9 15 30 1016 10 16.0934 0 0
6:35 pm 18:35 Clear 44 6.5 28 -2.1 55 55 SW 8 13 30 1016 10 16.0934 0 0
6:55 pm 18:55 Clear 42 5.7 28 -2.1 58 58 SW 7 11 30 1016 10 16.0934 0 0
7:15 pm 19:15 Clear 42 5.7 28 -2.2 57 57 SW 9 15 29.97 1015 10 16.0934 0 0
7:35 pm 19:35 Clear 42 5.8 28 -2.3 56 56 SW 9 15 30 1016 10 16.0934 0 0
7:55 pm 19:55 Clear 41 5 28 -2.2 60 60 SSW 8 13 30 1016 10 16.0934 0 0
8:15 pm 20:15 Clear 41 4.9 28 -2.4 60 60 SW 8 13 30 1016 10 16.0934 0 0
8:35 pm 20:35 Clear 42 5.5 28 -2.5 57 57 SW 9 15 29.97 1015 10 16.0934 0 0
8:55 pm 20:55 Clear 41 4.9 27 -2.6 59 59 SW 8 13 30 1016 10 16.0934 0 0
9:15 pm 21:15 Clear 43 6 27 -2.6 54 54 SW 9 15 29.94 1014 10 16.0934 0 0
9:35 pm 21:35 Clear 42 5.8 27 -2.7 55 55 SW 10 17 29.94 1014 10 16.0934 0 0
9:55 pm 21:55 Clear 42 5.3 27 -2.8 56 56 SW 9 15 29.97 1015 10 16.0934 0 0
10:15 pm 22:15 Clear 41 4.8 27 -2.7 59 59 SW 8 13 29.97 1015 10 16.0934 0 0
10:35 pm 22:35 Clear 39 4 27 -2.8 62 62 SW 9 15 29.94 1014 10 16.0934 0 0
10:55 pm 22:55 Clear 39 3.7 27 -3 62 62 SW 9 15 29.94 1014 10 16.0934 0 0
11:15 pm 23:15 Clear 39 3.7 27 -2.9 62 62 SW 9 15 29.94 1014 10 16.0934 0 0
11:35 pm 23:35 Clear 38 3.2 27 -2.8 65 65 SW 9 15 29.91 1013 10 16.0934 0 0
11:55 pm 23:55 Clear 39 3.7 27 -2.7 63 63 SW 9 15 29.91 1013 10 16.0934 0 0

Powered by AerisWeather